Friday Harbor, WA
on Friday, December 21, 2012

Friday
Previous Day Next Day
Daily Summary
 ActualAverageRecord
Temperature
Mean Temperature °F °F  
Max Temperature 46°F 43°F 55°F (2005)
Min Temperature 37°F 34°F 19°F (1998)
Degree Days
Heating Degree Days 24    
Moisture
Dew Point 35°F   
Average Humidity 77    
Maximum Humidity 89    
Minimum Humidity 67    
Precipitation
Precipitation 0.00 in in in ()
Wind
Wind Speed 11 mph   
Max Wind Speed 20 mph   
Max Gust Speed 28 mph   
Visibility 10 miles   
Events     
Averages and records for this station are not official NWS values.
Key: T is trace of precipitation, MM is missing value
Source: NWS Daily Summary
Seasonal Weather Averages
Time(PST)TemperatureDew PointHumidity Pressure Visibility Wind DirectionWind SpeedGust SpeedPrecipitationEvents Conditions
12:53 AM 42.1°F 36.0°F 79% 29.79 in 10.0 miles ESE 13.8 mph - N/A   Partly Cloudy
1:53 AM 41.0°F 35.1°F 79% 29.78 in 10.0 miles ESE 13.8 mph 19.6 mph N/A   Clear
2:53 AM 39.9°F 35.1°F 83% 29.78 in 10.0 miles East 9.2 mph 17.3 mph N/A   Partly Cloudy
3:53 AM 39.9°F 34.0°F 79% 29.78 in 10.0 miles ENE 9.2 mph - N/A   Clear
4:53 AM 39.9°F 34.0°F 79% 29.75 in 10.0 miles East 10.4 mph 18.4 mph N/A   Clear
5:53 AM 39.0°F 33.1°F 79% 29.75 in 10.0 miles ENE 6.9 mph - N/A   Clear
6:53 AM 39.0°F 32.0°F 76% 29.73 in 10.0 miles ENE 4.6 mph - N/A   Clear
7:53 AM 39.0°F 32.0°F 76% 29.74 in 10.0 miles NE 4.6 mph - N/A   Overcast
8:53 AM 39.0°F 32.0°F 76% 29.73 in 10.0 miles East 8.1 mph - N/A   Scattered Clouds
9:53 AM 41.0°F 32.0°F 70% 29.73 in 10.0 miles ESE 12.7 mph - N/A   Overcast
10:53 AM 42.1°F 32.0°F 67% 29.72 in 10.0 miles ESE 13.8 mph - N/A   Mostly Cloudy
11:39 AM 42.8°F 33.8°F 70% 29.72 in 10.0 miles ESE 17.3 mph 23.0 mph N/A   Mostly Cloudy
11:49 AM 44.6°F 35.6°F 71% 29.72 in 10.0 miles ESE 18.4 mph 24.2 mph N/A   Mostly Cloudy
11:53 AM 44.1°F 34.0°F 68% 29.72 in 10.0 miles ESE 19.6 mph 27.6 mph N/A   Mostly Cloudy
12:17 PM 42.8°F 35.6°F 76% 29.71 in 10.0 miles ESE 15.0 mph - N/A   Mostly Cloudy
12:53 PM 44.1°F 37.0°F 76% 29.72 in 10.0 miles SE 16.1 mph 26.5 mph N/A   Overcast
1:53 PM 45.0°F 37.9°F 76% 29.72 in 10.0 miles SE 16.1 mph 26.5 mph N/A   Mostly Cloudy
2:03 PM 44.6°F 37.4°F 76% 29.72 in 10.0 miles SE 18.4 mph 23.0 mph N/A   Mostly Cloudy
2:45 PM 44.6°F 37.4°F 76% 29.72 in 10.0 miles SE 17.3 mph 26.5 mph N/A   Mostly Cloudy
2:53 PM 45.0°F 37.0°F 74% 29.73 in 10.0 miles SE 16.1 mph 26.5 mph N/A   Scattered Clouds
3:09 PM 46.4°F 37.4°F 71% 29.72 in 10.0 miles SE 15.0 mph 20.7 mph N/A   Mostly Cloudy
3:53 PM 44.1°F 37.0°F 76% 29.73 in 10.0 miles East 9.2 mph - N/A   Mostly Cloudy
4:53 PM 44.1°F 37.0°F 76% 29.73 in 10.0 miles ENE 8.1 mph - N/A   Overcast
5:53 PM 44.1°F 37.0°F 76% 29.72 in 10.0 miles East 6.9 mph 17.3 mph N/A   Overcast
6:41 PM 42.8°F 35.6°F 76% 29.72 in 10.0 miles ENE 5.8 mph - N/A   Scattered Clouds
6:53 PM 42.1°F 36.0°F 79% 29.72 in 10.0 miles NE 4.6 mph - N/A   Clear
7:53 PM 39.9°F 34.0°F 79% 29.71 in 10.0 miles North 5.8 mph - N/A   Clear
8:53 PM 39.0°F 34.0°F 82% 29.71 in 10.0 miles North 4.6 mph - N/A   Partly Cloudy
9:53 PM 37.9°F 35.1°F 89% 29.70 in 10.0 miles Calm Calm - N/A   Mostly Cloudy
10:53 PM 39.0°F 34.0°F 82% 29.70 in 10.0 miles North 3.5 mph - N/A   Mostly Cloudy
11:53 PM 39.9°F 36.0°F 86% 29.69 in 10.0 miles Calm Calm - N/A   Overcast
Moon Phase
Dec. 21 Dec. 28 Jan. 04 Jan. 11 Jan. 18
Sunrise:08:01 AM (PST) Moon Rise:12:27 PM (PST)12/21
Sunset:04:19 PM (PST) Moon Set:01:33 AM (PST)12/21

Copyright © 2014 The Weather Underground, Inc.